Regional Weather Roundup
Issued by NWS

Home | Current Version | Previous Version | Graphics & Text | Print | Product List | Glossary On
Versions: 1 2 3 4 5 6 7 8 9 10 11 12 13 14 15 16 17 18 19 20 21 22 23 24 25 26 27 28 29 30 31 32 33 34 35 36 37 38 39 40 41 42 43 44 45 46 47 48 49 50
000
ASUS43 KOAX 221610
RWRNE

WEATHER ROUNDUP FOR NEBRASKA
NATIONAL WEATHER SERVICE OMAHA NE
1000 AM CST SUN JAN 22 2017

NOTES: SATELLITE DATA IS BEING USED TO AUGMENT CLOUD COVER ABOVE
       12000 FEET.
       "FAIR" INDICATES FEW OR NO CLOUDS BELOW 12,000 FEET WITH NO
       SIGNIFICANT WEATHER AND/OR OBSTRUCTIONS TO VISIBILITY.

  * THESE STATIONS DO NOT REPORT WEATHER SUCH AS RAIN...SNOW OR FOG.

NEZ001>004-019>022-054>056-221700-
NEBRASKA PANHANDLE

CITY           SKY/WX    TMP DP  RH WIND       PRES   REMARKS
SCOTTSBLUFF    CLOUDY    30  22  72 W10       29.90R WCI  21
ALLIANCE       CLOUDY    28  24  85 W7        29.87R WCI  21
CHADRON        CLOUDY    29  23  78 SW8       29.88R WCI  21
KIMBALL        MOSUNNY   35  23  61 NW16G23   29.89R WCI  25
SIDNEY         SUNNY     33  23  66 NW14      29.89R WCI  23
$$

NEZ057>060-069>072-079>082-221700-
SOUTHWEST NEBRASKA

CITY           SKY/WX    TMP DP  RH WIND       PRES   REMARKS
NORTH PLATTE   SUNNY     32  28  85 W7        29.87R WCI  26
IMPERIAL       SUNNY     34  26  72 N15       29.88R WCI  24
LEXINGTON      SUNNY     33  28  84 NW13      29.85R WCI  23
MCCOOK         SUNNY     33  29  85 NW12      29.87R WCI  24
OGALLALA       SUNNY     35  29  79 NW13      29.88R WCI  26
$$

NEZ005>010-023>029-035>040-094-221700-
NORTH CENTRAL NEBRASKA

CITY           SKY/WX    TMP DP  RH WIND       PRES   REMARKS
VALENTINE      CLOUDY    26  23  88 SW7       29.84R WCI  18
AINSWORTH      MOSUNNY   32  30  91 NW10      29.83R WCI  24
BROKEN BOW     SUNNY     35  28  75 NW8       29.83R WCI  29
O`NEILL        CLOUDY    32  28  84 NW9       29.82R WCI  24
ORD            SUNNY     33  26  75 NW10      29.82R WCI  25
THEDFORD       PTSUNNY   31  28  90 W9        29.86R WCI  23
$$

NEZ041-046>049-061>064-073>077-083>087-221700-
SOUTH CENTRAL NEBRASKA

CITY           SKY/WX    TMP DP  RH WIND       PRES   REMARKS
GRAND ISLAND   SUNNY     33  29  85 NW15      29.81R WCI  23
AURORA         SUNNY     33  30  90 N15       29.81R WCI  23
HASTINGS       SUNNY     35  28  75 N16       29.82R WCI  25
HEBRON         SUNNY     35  31  84 N8        29.81R WCI  28
HOLDREGE       SUNNY     36  28  73 NW12G18   29.83R WCI  27
KEARNEY *      SUNNY    N/A N/A N/A MISG        N/A
YORK           PTSUNNY   32  30  93 N14G23    29.81R WCI  22
$$

NEZ011>018-030>034-042>045-221700-
NORTHEAST NEBRASKA

CITY           SKY/WX    TMP DP  RH WIND       PRES   REMARKS
NORFOLK        CLOUDY    29  28  96 NW12      29.79R FOG     WCI  19
ALBION         SUNNY     30  23  73 N12       29.81R WCI  21
BLAIR          CLOUDY    34  31  90 NW9       29.75R WCI  26
FREMONT        CLOUDY    33  32  96 NW10      29.79R WCI  25
TEKAMAH        CLOUDY    34  30  85 N8        29.78R WCI  27
WAYNE          CLOUDY    32  31  94 NW9       29.79R WCI  24
$$

NEZ050>053-065>068-078-088>093-221700-
SOUTHEAST NEBRASKA

CITY           SKY/WX    TMP DP  RH WIND       PRES   REMARKS
LINCOLN        CLOUDY    34  31  88 NW10      29.81R WCI  26
OMAHA EPPLEY   CLOUDY    34  29  82 N9        29.77R WCI  27
BEATRICE       CLOUDY    32  31  96 N13       29.79R FOG     WCI  23
FALLS CITY     CLOUDY    32  30  92 N12G22    29.75R WCI  23
NEBRASKA CITY  CLOUDY    32  31  96 N15       29.77R FOG     WCI  22
PLATTSMOUTH    CLOUDY    32  29  88 NW6       29.77R FOG     WCI  27
$$

NEZ044-045-051>053-067-221700-
OMAHA AREA

CITY           SKY/WX    TMP DP  RH WIND       PRES   REMARKS
OMAHA EPPLEY   CLOUDY    34  29  82 N9        29.77R WCI  27
BLAIR          CLOUDY    34  31  90 NW9       29.75R WCI  26
FREMONT        CLOUDY    33  32  96 NW10      29.79R WCI  25
MILLARD        CLOUDY    37  32  84 NW9       29.78R WCI  30
OFFUTT AFB     CLOUDY    35  34  99 N3        29.77R
PLATTSMOUTH    CLOUDY    32  29  88 NW6       29.77R FOG     WCI  27
WAHOO          CLOUDY    33  31  92 NW12      29.79R WCI  24
$$




USA.gov is the U.S. government's official web portal to all federal, state and local government web resources and services.